Time,TemperatureF,DewpointF,PressureIn,WindDirection,WindDirectionDegrees,WindSpeedMPH,WindSpeedGustMPH,Humidity,HourlyPrecipIn,Conditions,Clouds,dailyrainin,SoftwareType,DateUTC
2013-05-27 00:07:00,49.1,45.0,29.96,WNW,297,2.0,4.0,87,0.00,,,0.00,weatherlink.com 1.10,2013-05-27 07:07:00,
2013-05-27 00:22:00,48.9,46.0,29.95,NW,311,2.0,4.0,88,0.00,,,0.00,weatherlink.com 1.10,2013-05-27 07:22:00,
2013-05-27 00:37:00,48.8,45.0,29.95,NW,319,4.0,4.0,87,0.00,,,0.00,weatherlink.com 1.10,2013-05-27 07:37:00,
2013-05-27 00:52:00,48.5,45.0,29.95,NW,306,2.0,4.0,88,0.00,,,0.00,weatherlink.com 1.10,2013-05-27 07:52:00,
2013-05-27 01:07:00,48.2,45.0,29.95,WNW,294,2.0,2.0,88,0.00,,,0.00,weatherlink.com 1.10,2013-05-27 08:07:00,
2013-05-27 01:22:00,48.5,45.0,29.95,WNW,296,3.0,5.0,88,0.00,,,0.00,weatherlink.com 1.10,2013-05-27 08:22:00,
2013-05-27 01:37:00,48.3,45.0,29.94,WNW,296,1.0,3.0,89,0.00,,,0.00,weatherlink.com 1.10,2013-05-27 08:37:00,
2013-05-27 01:52:00,48.8,45.0,29.95,WNW,302,1.0,3.0,87,0.00,,,0.00,weatherlink.com 1.10,2013-05-27 08:52:00,
2013-05-27 02:07:00,49.1,45.0,29.95,NW,304,0.0,1.0,86,0.00,,,0.00,weatherlink.com 1.10,2013-05-27 09:07:00,
2013-05-27 02:22:00,48.5,45.0,29.94,NW,304,0.0,1.0,88,0.00,,,0.00,weatherlink.com 1.10,2013-05-27 09:22:00,
2013-05-27 02:37:00,48.3,45.0,29.94,WNW,289,0.0,1.0,89,0.00,,,0.00,weatherlink.com 1.10,2013-05-27 09:37:00,
2013-05-27 02:52:00,47.9,45.0,29.94,SE,136,0.0,0.0,90,0.00,,,0.00,weatherlink.com 1.10,2013-05-27 09:52:00,
2013-05-27 03:07:00,47.8,45.0,29.94,ESE,122,0.0,1.0,91,0.00,,,0.00,weatherlink.com 1.10,2013-05-27 10:07:00,
2013-05-27 03:22:00,47.8,45.0,29.94,ESE,121,0.0,0.0,90,0.00,,,0.00,weatherlink.com 1.10,2013-05-27 10:22:00,
2013-05-27 03:37:00,47.9,45.0,29.94,ESE,122,0.0,1.0,90,0.00,,,0.00,weatherlink.com 1.10,2013-05-27 10:37:00,
2013-05-27 03:52:00,47.3,45.0,29.94,North,352,0.0,2.0,92,0.00,,,0.00,weatherlink.com 1.10,2013-05-27 10:52:00,
2013-05-27 04:07:00,47.6,45.0,29.94,ENE,68,1.0,1.0,91,0.00,,,0.00,weatherlink.com 1.10,2013-05-27 11:07:00,
2013-05-27 04:22:00,47.5,45.0,29.94,ENE,68,0.0,1.0,91,0.00,,,0.00,weatherlink.com 1.10,2013-05-27 11:22:00,
2013-05-27 04:37:00,47.1,45.0,29.94,SSE,160,0.0,1.0,92,0.00,,,0.00,weatherlink.com 1.10,2013-05-27 11:37:00,
2013-05-27 04:52:00,46.8,45.0,29.93,SSE,160,0.0,0.0,93,0.00,,,0.00,weatherlink.com 1.10,2013-05-27 11:52:00,
2013-05-27 05:07:00,46.7,45.0,29.94,SSE,160,0.0,0.0,94,0.00,,,0.00,weatherlink.com 1.10,2013-05-27 12:07:00,
2013-05-27 05:22:00,47.0,45.0,29.94,SE,128,0.0,1.0,93,0.00,,,0.00,weatherlink.com 1.10,2013-05-27 12:22:00,
2013-05-27 05:37:00,47.1,45.0,29.93,SE,127,0.0,1.0,93,0.00,,,0.00,weatherlink.com 1.10,2013-05-27 12:37:00,
2013-05-27 05:52:00,47.6,45.0,29.93,ENE,75,1.0,1.0,91,0.00,,,0.00,weatherlink.com 1.10,2013-05-27 12:52:00,
2013-05-27 06:07:00,47.9,46.0,29.93,NE,41,0.0,2.0,91,0.00,,,0.00,weatherlink.com 1.10,2013-05-27 13:07:00,
2013-05-27 06:22:00,48.4,46.0,29.93,East,89,0.0,2.0,91,0.00,,,0.00,weatherlink.com 1.10,2013-05-27 13:22:00,
2013-05-27 06:37:00,49.1,47.0,29.93,ENE,70,2.0,3.0,91,0.00,,,0.00,weatherlink.com 1.10,2013-05-27 13:37:00,
2013-05-27 06:52:00,49.7,47.0,29.93,ENE,63,2.0,4.0,89,0.00,,,0.00,weatherlink.com 1.10,2013-05-27 13:52:00,
2013-05-27 07:07:00,50.3,47.0,29.92,ENE,72,2.0,3.0,89,0.00,,,0.00,weatherlink.com 1.10,2013-05-27 14:07:00,
2013-05-27 07:22:00,51.3,47.0,29.93,SE,134,2.0,4.0,86,0.00,,,0.00,weatherlink.com 1.10,2013-05-27 14:22:00,
2013-05-27 07:37:00,51.6,48.0,29.92,SE,131,1.0,2.0,86,0.00,,,0.00,weatherlink.com 1.10,2013-05-27 14:37:00,
2013-05-27 07:52:00,52.5,48.0,29.92,ESE,123,4.0,5.0,83,0.00,,,0.00,weatherlink.com 1.10,2013-05-27 14:52:00,
2013-05-27 08:07:00,53.0,47.0,29.91,SSE,155,2.0,5.0,81,0.00,,,0.00,weatherlink.com 1.10,2013-05-27 15:07:00,
2013-05-27 08:22:00,52.7,47.0,29.91,WNW,283,0.0,6.0,82,0.00,,,0.00,weatherlink.com 1.10,2013-05-27 15:22:00,
2013-05-27 08:38:00,54.1,48.0,29.91,SSE,159,1.0,6.0,79,0.00,,,0.00,weatherlink.com 1.10,2013-05-27 15:38:00,
2013-05-27 08:53:00,55.3,48.0,29.90,SE,125,3.0,8.0,76,0.00,,,0.00,weatherlink.com 1.10,2013-05-27 15:53:00,
2013-05-27 09:08:00,55.1,47.0,29.90,ESE,120,5.0,7.0,75,0.00,,,0.00,weatherlink.com 1.10,2013-05-27 16:08:00,
2013-05-27 09:23:00,56.3,49.0,29.89,SSE,149,3.0,9.0,76,0.00,,,0.00,weatherlink.com 1.10,2013-05-27 16:23:00,
2013-05-27 09:38:00,57.2,48.0,29.88,SSE,160,0.0,7.0,72,0.00,,,0.00,weatherlink.com 1.10,2013-05-27 16:38:00,
2013-05-27 09:53:00,58.0,47.0,29.88,SE,132,6.0,10.0,66,0.00,,,0.00,weatherlink.com 1.10,2013-05-27 16:53:00,
2013-05-27 10:08:00,58.2,48.0,29.87,ENE,58,0.0,9.0,69,0.00,,,0.00,weatherlink.com 1.10,2013-05-27 17:08:00,
2013-05-27 10:23:00,58.7,46.0,29.87,SE,137,2.0,9.0,63,0.00,,,0.00,weatherlink.com 1.10,2013-05-27 17:23:00,
2013-05-27 10:38:00,57.2,46.0,29.86,SE,124,4.0,10.0,67,0.00,,,0.00,weatherlink.com 1.10,2013-05-27 17:38:00,
2013-05-27 10:53:00,58.3,47.0,29.86,SSE,158,2.0,10.0,66,0.00,,,0.00,weatherlink.com 1.10,2013-05-27 17:53:00,
2013-05-27 11:08:00,59.5,48.0,29.85,South,184,1.0,8.0,65,0.00,,,0.00,weatherlink.com 1.10,2013-05-27 18:08:00,
2013-05-27 11:23:00,60.8,46.0,29.85,ESE,103,7.0,10.0,59,0.00,,,0.00,weatherlink.com 1.10,2013-05-27 18:23:00,
2013-05-27 11:38:00,60.6,46.0,29.84,SSE,166,4.0,9.0,60,0.00,,,0.00,weatherlink.com 1.10,2013-05-27 18:38:00,
2013-05-27 11:53:00,60.2,45.0,29.84,SE,129,4.0,8.0,58,0.00,,,0.00,weatherlink.com 1.10,2013-05-27 18:53:00,
2013-05-27 12:08:00,59.9,44.0,29.83,SSE,165,1.0,7.0,57,0.00,,,0.00,weatherlink.com 1.10,2013-05-27 19:08:00,
2013-05-27 12:23:00,61.8,46.0,29.83,ENE,74,3.0,9.0,57,0.00,,,0.00,weatherlink.com 1.10,2013-05-27 19:23:00,
2013-05-27 12:38:00,62.0,46.0,29.82,SE,136,4.0,8.0,56,0.00,,,0.00,weatherlink.com 1.10,2013-05-27 19:38:00,
2013-05-27 12:53:00,62.5,45.0,29.81,NE,45,2.0,7.0,54,0.00,,,0.00,weatherlink.com 1.10,2013-05-27 19:53:00,
2013-05-27 13:08:00,61.6,44.0,29.81,SW,225,1.0,9.0,53,0.00,,,0.00,weatherlink.com 1.10,2013-05-27 20:08:00,
2013-05-27 13:23:00,62.5,45.0,29.81,SSE,152,0.0,7.0,54,0.00,,,0.00,weatherlink.com 1.10,2013-05-27 20:23:00,
2013-05-27 13:38:00,63.5,44.0,29.80,SE,135,2.0,4.0,49,0.00,,,0.00,weatherlink.com 1.10,2013-05-27 20:38:00,
2013-05-27 13:53:00,64.7,45.0,29.80,SSE,150,2.0,10.0,49,0.00,,,0.00,weatherlink.com 1.10,2013-05-27 20:53:00,
2013-05-27 14:08:00,62.6,44.0,29.79,SE,134,4.0,8.0,51,0.00,,,0.00,weatherlink.com 1.10,2013-05-27 21:08:00,
2013-05-27 14:23:00,61.8,44.0,29.79,SW,226,4.0,8.0,53,0.00,,,0.00,weatherlink.com 1.10,2013-05-27 21:23:00,
2013-05-27 14:39:00,62.9,45.0,29.78,SE,136,1.0,7.0,52,0.00,,,0.00,weatherlink.com 1.10,2013-05-27 21:39:00,
2013-05-27 14:54:00,63.0,44.0,29.77,SSW,208,3.0,6.0,50,0.00,,,0.00,weatherlink.com 1.10,2013-05-27 21:54:00,
2013-05-27 15:09:00,61.4,45.0,29.77,SE,137,1.0,5.0,56,0.00,,,0.00,weatherlink.com 1.10,2013-05-27 22:09:00,
2013-05-27 15:24:00,62.0,45.0,29.77,SSW,195,1.0,3.0,54,0.00,,,0.00,weatherlink.com 1.10,2013-05-27 22:24:00,
2013-05-27 15:39:00,63.3,46.0,29.77,SE,128,2.0,7.0,53,0.00,,,0.00,weatherlink.com 1.10,2013-05-27 22:39:00,
2013-05-27 15:54:00,62.5,44.0,29.77,SW,226,2.0,5.0,52,0.00,,,0.00,weatherlink.com 1.10,2013-05-27 22:54:00,
2013-05-27 16:09:00,62.7,45.0,29.77,South,183,1.0,6.0,52,0.00,,,0.00,weatherlink.com 1.10,2013-05-27 23:09:00,
2013-05-27 16:24:00,61.5,47.0,29.77,SE,136,2.0,4.0,59,0.00,,,0.00,weatherlink.com 1.10,2013-05-27 23:24:00,
2013-05-27 16:39:00,55.7,46.0,29.79,West,262,11.0,18.0,71,0.00,,,0.00,weatherlink.com 1.10,2013-05-27 23:39:00,
2013-05-27 16:54:00,53.3,46.0,29.79,West,268,8.0,13.0,76,0.02,,,0.02,weatherlink.com 1.10,2013-05-27 23:54:00,
2013-05-27 17:09:00,52.6,46.0,29.79,WNW,294,9.0,13.0,79,0.03,,,0.03,weatherlink.com 1.10,2013-05-28 00:09:00,
2013-05-27 17:24:00,53.5,47.0,29.79,WNW,284,6.0,12.0,79,0.03,,,0.03,weatherlink.com 1.10,2013-05-28 00:24:00,
2013-05-27 17:39:00,54.1,47.0,29.79,West,280,3.0,14.0,76,0.02,,,0.03,weatherlink.com 1.10,2013-05-28 00:39:00,
2013-05-27 17:54:00,53.9,46.0,29.79,West,278,6.0,12.0,74,0.01,,,0.03,weatherlink.com 1.10,2013-05-28 00:54:00,
2013-05-27 18:09:00,52.6,46.0,29.78,WNW,284,4.0,10.0,79,0.00,,,0.03,weatherlink.com 1.10,2013-05-28 01:09:00,
2013-05-27 18:24:00,52.1,47.0,29.78,WNW,294,5.0,8.0,83,0.00,,,0.03,weatherlink.com 1.10,2013-05-28 01:24:00,
2013-05-27 18:40:00,51.7,47.0,29.77,NW,307,3.0,7.0,85,0.01,,,0.04,weatherlink.com 1.10,2013-05-28 01:40:00,
2013-05-27 18:54:00,51.4,47.0,29.77,NNW,345,5.0,7.0,86,0.01,,,0.04,weatherlink.com 1.10,2013-05-28 01:54:00,
2013-05-27 19:09:00,51.4,47.0,29.77,NW,322,4.0,7.0,86,0.01,,,0.04,weatherlink.com 1.10,2013-05-28 02:09:00,
2013-05-27 19:24:00,50.9,47.0,29.77,NW,323,2.0,6.0,87,0.01,,,0.04,weatherlink.com 1.10,2013-05-28 02:24:00,
2013-05-27 19:39:00,50.5,47.0,29.76,NNW,330,3.0,5.0,88,0.00,,,0.04,weatherlink.com 1.10,2013-05-28 02:39:00,
2013-05-27 19:54:00,50.2,47.0,29.75,North,352,4.0,5.0,87,0.00,,,0.04,weatherlink.com 1.10,2013-05-28 02:54:00,
2013-05-27 20:09:00,49.9,47.0,29.75,NNE,26,1.0,2.0,89,0.00,,,0.04,weatherlink.com 1.10,2013-05-28 03:09:00,
2013-05-27 20:24:00,49.6,47.0,29.76,SE,138,0.0,2.0,90,0.00,,,0.04,weatherlink.com 1.10,2013-05-28 03:24:00,
2013-05-27 20:39:00,49.3,47.0,29.76,SSE,166,0.0,3.0,92,0.00,,,0.04,weatherlink.com 1.10,2013-05-28 03:39:00,
2013-05-27 20:54:00,49.3,47.0,29.77,WSW,246,0.0,2.0,93,0.00,,,0.04,weatherlink.com 1.10,2013-05-28 03:54:00,
2013-05-27 21:09:00,49.0,47.0,29.77,SW,225,0.0,0.0,93,0.01,,,0.05,weatherlink.com 1.10,2013-05-28 04:09:00,
2013-05-27 21:24:00,49.0,47.0,29.78,SW,225,0.0,1.0,93,0.01,,,0.05,weatherlink.com 1.10,2013-05-28 04:24:00,
2013-05-27 21:39:00,49.0,47.0,29.78,ESE,105,0.0,1.0,94,0.01,,,0.05,weatherlink.com 1.10,2013-05-28 04:39:00,
2013-05-27 21:54:00,48.9,48.0,29.78,ESE,105,0.0,1.0,95,0.02,,,0.06,weatherlink.com 1.10,2013-05-28 04:54:00,
2013-05-27 22:09:00,48.7,47.0,29.78,ESE,107,0.0,0.0,95,0.02,,,0.07,weatherlink.com 1.10,2013-05-28 05:09:00,
2013-05-27 22:24:00,48.6,47.0,29.78,SE,138,0.0,0.0,95,0.04,,,0.09,weatherlink.com 1.10,2013-05-28 05:24:00,
2013-05-27 22:39:00,48.4,47.0,29.77,SE,139,0.0,0.0,95,0.04,,,0.09,weatherlink.com 1.10,2013-05-28 05:39:00,
2013-05-27 22:54:00,48.4,47.0,29.77,ENE,59,0.0,2.0,95,0.04,,,0.10,weatherlink.com 1.10,2013-05-28 05:54:00,
2013-05-27 23:09:00,48.3,47.0,29.76,ENE,74,0.0,3.0,95,0.03,,,0.10,weatherlink.com 1.10,2013-05-28 06:09:00,
2013-05-27 23:24:00,48.1,47.0,29.76,East,81,1.0,2.0,95,0.01,,,0.10,weatherlink.com 1.10,2013-05-28 06:24:00,
2013-05-27 23:39:00,47.9,47.0,29.75,NE,49,0.0,2.0,95,0.01,,,0.10,weatherlink.com 1.10,2013-05-28 06:39:00,
2013-05-27 23:54:00,47.7,46.0,29.76,East,95,0.0,0.0,95,0.00,,,0.10,weatherlink.com 1.10,2013-05-28 06:54:00,